Orbital Elements at Epoch 2459000.5 (2020-May-31.0) TDB
Reference: JPL 29 (heliocentric ecliptic J2000)
Element | Value | Uncertainty (1-sigma) | Units |
e | .1957242685090385 | 3.2427e-08 | |
a | 3.174457637018125 | 1.4316e-08 | au |
q | 2.553139238099821 | 1.0081e-07 | au |
i | 1.239595981485459 | 3.722e-06 | deg |
node | 51.28289848885471 | 0.00017996 | deg |
peri | 81.19723503763954 | 0.00018031 | deg |
M | 43.52397781972909 | 9.9992e-06 | deg |
tp | 2458750.736592887870 (2019-Sep-24.23659289) | 5.7125e-05 | TDB |
period | 2065.868770836685 5.66 | 1.3975e-05 3.826e-08 | d yr |
n | .1742608267679067 | 1.1788e-09 | deg/d |
Q | 3.795776035936429 | 1.7118e-08 | au |
|
| | Orbit Determination Parameters
Additional Information
|